[[{"header":{"parameterUnit":"m.s-1","parameterCategory":1,"la1":30.2991,"la2":30.254,"lo1":-89.0895,"lo2":-89.0444,"dy":0.0017,"dx":0.0017,"nx":28,"ny":28,"refTime":"2023-10-24T09:00:00:Z","depth":0,"parameterNumber":2,"parameterNumberName":"U-component_of_WINDS"},"data":[0,0,0,0,0,0,0,0,0,0,0,0,0,0,0,0,0,0,0,0,0,0,0,0,0,0,0,0,0,0,0,0,0,0,0,0,0,0,0,0,0,0,0,0,0,0,0,0,0,0,0,0,0,0,0,0,0,0,-6.2844,-6.2845,0,-6.2913,-6.2914,-6.2915,-6.2805,-6.2802,-6.2798,-6.2794,-6.2862,-6.2867,-6.2872,0,0,0,0,0,0,0,0,0,0,0,0,0,-6.2616,-6.2621,-6.2844,-6.2845,-6.2846,-6.2913,-6.2914,-6.2915,-6.2806,-6.2802,-6.2797,-6.2793,-6.286,-6.2866,-6.2873,0,0,0,0,0,0,0,0,0,0,0,0,0,-6.2703,-6.2622,-6.2844,-6.28,-6.2796,-6.2913,-6.2914,-6.2915,-6.2807,-6.2801,-6.2796,-6.2791,-6.2858,-6.2866,-6.2874,-6.3035,0,0,-6.2898,-6.2901,0,0,0,0,0,0,0,0,-6.2698,-6.2712,-6.2805,-6.2803,-6.28,-6.2845,-6.2858,-6.2955,-6.2809,-6.2803,-6.2794,-6.2788,-6.2861,-6.2868,-6.2893,-6.3039,-6.3041,-6.2899,-6.2903,-6.2907,-6.2909,0,0,0,0,0,0,0,-6.2692,-6.2708,-6.2871,-6.2807,-6.2803,-6.2776,-6.2782,-6.2876,-6.2862,-6.2803,-6.2795,-6.2805,-6.2858,-6.2886,-6.2894,-6.3042,-6.2898,-6.2906,-6.291,-6.2914,-6.3324,-6.333,0,0,0,0,0,0,-6.2692,-6.2704,-6.2869,-6.2873,-6.2734,-6.2785,-6.2791,-6.2836,-6.2861,-6.286,-6.281,-6.28,-6.2875,-6.2885,-6.2896,-6.3086,-6.2907,-6.2914,-6.2919,-6.3318,-6.3325,-6.3332,0,0,0,0,0,0,-6.2688,-6.2708,-6.2866,-6.2787,-6.2805,-6.2794,-6.2845,-6.284,-6.2868,-6.2866,-6.2863,-6.2841,-6.2871,-6.2885,-6.3002,-6.3087,-6.2918,-6.2925,-6.3311,-6.332,-6.3329,-6.3468,0,0,0,0,0,0,-6.2682,-6.2707,-6.2768,-6.2789,-6.2809,-6.2972,-6.2851,-6.2846,-6.2882,-6.287,-6.2895,-6.2893,-6.2868,-6.2991,-6.301,-6.3095,-6.2931,-6.3303,-6.3315,-6.3326,-6.3456,-6.3481,-6.3502,0,0,0,0,0,-6.2674,-6.2804,-6.2772,-6.2793,-6.2886,-6.2977,-6.2988,-6.2957,-6.289,-6.2951,-6.295,-6.2892,-6.3076,-6.3003,-6.3024,-6.3113,-6.3297,-6.3312,-6.3325,-6.3445,-6.3476,-6.3502,0,0,0,0,0,0,-6.2792,-6.2806,-6.277,-6.2911,-6.2944,-6.2958,-6.3034,-6.2991,-6.3042,-6.3028,-6.2986,-6.2993,-6.3118,-6.3128,-6.3047,-6.3271,-6.3175,-6.3194,-6.3259,-6.3288,-6.3311,-6.3305,-6.2938,0,0,0,0,0,-6.2835,-6.2909,-6.2916,-6.304,-6.3058,-6.3045,-6.3083,-6.3056,-6.3087,-6.31,-6.3108,-6.314,-6.3204,-6.3247,-6.3307,-6.3458,-6.3461,-6.3529,-6.3553,-6.3572,-6.3587,-6.3667,-6.3697,-6.3377,-6.3377,-6.3377,0,0,-6.2923,-6.294,-6.2989,-6.3064,-6.3086,-6.3162,-6.3056,-6.3141,-6.3196,-6.3113,-6.3223,-6.3231,-6.3264,-6.3399,-6.3458,-6.341,-6.3677,-6.359,-6.3605,-6.361,-6.3685,-6.3715,-6.3742,-6.3387,-6.3385,-6.3384,0,0,-6.3123,-6.3144,-6.3249,-6.3274,-6.3309,-6.33,-6.3326,-6.3347,-6.3349,-6.346,-6.3399,-6.3465,-6.3577,-6.3603,-6.3631,-6.3844,-6.3792,-6.3865,-6.3985,-6.4064,-6.4089,-6.4111,-6.4185,-6.4213,-6.3881,-6.3882,-6.3882,0,-6.3227,-6.334,-6.3308,-6.3397,-6.3432,-6.3363,-6.3468,-6.3494,-6.3547,-6.3572,-6.3518,-6.3658,-6.3676,-6.3815,-6.3868,-6.3894,-6.392,-6.386,-6.4088,-6.411,-6.413,-6.42,-6.4229,-6.389,-6.3889,-6.3888,-6.3887,0,-6.3466,-6.3546,-6.3627,-6.3681,-6.3725,-6.3822,-6.3804,-6.3853,-6.3824,-6.382,-6.3934,-6.3954,-6.4016,-6.4048,-6.402,-6.4184,-6.4153,-6.4095,-6.3997,-6.417,-6.4235,-6.4262,-6.3902,-6.3899,-6.3897,-6.3895,0,0,-6.3737,-6.3776,-6.3805,-6.3829,-6.3865,-6.3925,-6.402,-6.4082,-6.4124,-6.4165,-6.4242,-6.434,-6.4287,-6.4319,-6.4294,-6.4364,-6.453,-6.4297,-6.4297,-6.4337,-6.471,-6.4751,-6.4783,-6.4498,-6.4503,-6.4507,-6.4707,0,-6.3934,-6.4098,-6.4073,-6.423,-6.4303,-6.424,-6.4322,-6.4353,-6.4353,-6.4414,-6.4414,-6.4483,-6.4409,-6.4428,-6.4494,-6.4495,-6.4603,-6.4481,-6.4567,-6.457,-6.4557,-6.4817,-6.4861,-6.5048,-6.4732,-6.4736,-6.474,0,-6.4184,-6.4235,-6.44,-6.4426,-6.4455,-6.453,-6.4585,-6.4645,-6.4679,-6.4674,-6.4712,-6.4675,-6.4769,-6.4674,-6.4802,-6.4719,-6.4754,-6.476,-6.4767,-6.477,-6.4663,-6.4825,-6.5108,-6.5135,-6.478,-6.4777,-6.4774,0,-6.4363,-6.4473,-6.4585,-6.4608,-6.4642,-6.4695,-6.4712,-6.474,-6.478,-6.4829,-6.4854,-6.4913,-6.4945,-6.4991,-6.4971,-6.4904,-6.5103,-6.5006,-6.51,-6.5101,-6.5141,-6.5139,-6.543,-6.517,-6.517,-6.5169,-6.5168,0,-6.4582,-6.4685,-6.4666,-6.4735,-6.4849,-6.482,-6.4933,-6.4942,-6.4969,-6.5038,-6.4988,-6.5054,-6.5025,-6.5089,-6.5075,-6.5182,-6.5198,-6.5195,-6.519,-6.5198,-6.5198,-6.5217,-6.5202,-6.5176,-6.5175,-6.5173,-6.5172,0,-6.4799,-6.479,-6.4909,-6.4932,-6.494,-6.5023,-6.5042,-6.5107,-6.5105,-6.5193,-6.5212,-6.5208,-6.5281,-6.5267,-6.5347,-6.5337,-6.5472,-6.5452,-6.5461,-6.5455,-6.5549,-6.5539,-6.586,-6.59,-6.5617,-6.562,-6.5622,0,-6.4938,-6.5016,-6.5048,-6.5092,-6.5112,-6.5183,-6.5224,-6.52,-6.5244,-6.529,-6.5349,-6.5418,-6.5472,-6.5592,-6.5595,-6.5657,-6.5636,-6.5744,-6.5644,-6.565,-6.5634,-6.5629,-6.5635,-6.5762,-6.5766,-6.5768,-6.5771,0,-6.5185,-6.5178,-6.5238,-6.5299,-6.535,-6.5396,-6.5437,-6.5475,-6.5455,-6.5507,-6.5582,-6.5624,-6.5707,-6.5776,-6.5834,-6.585,-6.5807,-6.5803,-6.5827,-6.5835,-6.5836,-6.5834,-6.5511,-6.5794,-6.5792,-6.579,-6.5789,-6.5788,-6.5365,-6.5431,-6.5465,-6.5534,-6.5564,-6.5604,-6.5666,-6.5673,-6.5735,-6.5801,-6.5784,-6.5869,-6.5902,-6.5976,-6.5999,-6.6065,-6.6024,-6.606,-6.6068,-6.6077,-6.6087,-6.5829,-6.6075,-6.6075,-6.6074,-6.6073,-6.6073,0,-6.5607,-6.5626,-6.5691,-6.5751,-6.5807,-6.5765,-6.5809,-6.5857,-6.5933,-6.5969,-6.6023,-6.611,-6.6177,-6.6188,-6.6252,-6.6302,-6.6284,-6.632,-6.6314,-6.6318,-6.6121,-6.6092,-6.6333,-6.6333,-6.6333,-6.6333,-6.6333,-6.6333,-6.5739,-6.5849,-6.5846,-6.597,-6.5989,-6.6072,-6.6101,-6.6138,-6.6166,-6.6265,-6.6322,-6.6329,-6.6355,-6.6421,-6.648,-6.6482,-6.6506,-6.6549,-6.6543,-6.6358,-6.6332,-6.6307,-6.6279,-6.6555,-6.6556,-6.6733,-6.6735,-6.6736]},{"header":{"parameterUnit":"m.s-1","parameterCategory":1,"la1":30.2991,"la2":30.254,"lo1":-89.0895,"lo2":-89.0444,"dy":0.0017,"dx":0.0017,"nx":28,"ny":28,"refTime":"2023-10-24T09:00:00:Z","depth":0,"parameterNumber":3,"parameterNumberName":"V-component_of_WINDS"},"data":[0,0,0,0,0,0,0,0,0,0,0,0,0,0,0,0,0,0,0,0,0,0,0,0,0,0,0,0,0,0,0,0,0,0,0,0,0,0,0,0,0,0,0,0,0,0,0,0,0,0,0,0,0,0,0,0,0,0,1.74,1.7401,0,1.7457,1.7458,1.7459,1.7487,1.7487,1.7487,1.7487,1.7542,1.7543,1.7545,0,0,0,0,0,0,0,0,0,0,0,0,0,1.7313,1.7315,1.74,1.7401,1.7402,1.7457,1.7458,1.7459,1.7487,1.7487,1.7487,1.7487,1.7542,1.7543,1.7545,0,0,0,0,0,0,0,0,0,0,0,0,0,1.7359,1.7315,1.74,1.7422,1.7425,1.7457,1.7458,1.7459,1.7487,1.7487,1.7487,1.7487,1.7541,1.7543,1.7545,1.7558,0,0,1.7552,1.7553,0,0,0,0,0,0,0,0,1.7356,1.7362,1.7418,1.7421,1.7424,1.7465,1.7448,1.7492,1.7487,1.7463,1.7487,1.7487,1.7516,1.752,1.7531,1.7561,1.7563,1.7552,1.7553,1.7554,1.7555,0,0,0,0,0,0,0,1.7353,1.736,1.7423,1.7419,1.7423,1.7429,1.7435,1.7456,1.7489,1.7465,1.7468,1.7474,1.7518,1.7529,1.7532,1.7564,1.7552,1.7554,1.7555,1.7556,1.7609,1.7609,0,0,0,0,0,0,1.7347,1.7357,1.7421,1.7424,1.7389,1.7431,1.7438,1.7452,1.7489,1.7494,1.7474,1.7475,1.7525,1.753,1.7534,1.7553,1.7554,1.7556,1.7558,1.7609,1.7609,1.7609,0,0,0,0,0,0,1.7345,1.7352,1.7419,1.7391,1.74,1.7432,1.7448,1.7453,1.7464,1.7495,1.7501,1.748,1.7525,1.7531,1.7553,1.7555,1.7557,1.7559,1.7609,1.7609,1.7609,1.759,0,0,0,0,0,0,1.7342,1.7351,1.7357,1.7391,1.7402,1.7436,1.7448,1.7454,1.7468,1.747,1.7502,1.7507,1.7526,1.7549,1.7555,1.7559,1.7561,1.7609,1.7609,1.7609,1.7591,1.7589,1.7589,0,0,0,0,0,1.7339,1.7348,1.7357,1.7364,1.7409,1.7436,1.7442,1.7464,1.7468,1.7474,1.7494,1.7506,1.7554,1.7551,1.7558,1.7562,1.7609,1.7609,1.7609,1.7591,1.759,1.7589,0,0,0,0,0,0,1.7311,1.7353,1.7363,1.7384,1.7407,1.7441,1.7449,1.7462,1.7483,1.7484,1.751,1.7517,1.7536,1.7551,1.7547,1.7577,1.7583,1.7584,1.7567,1.7566,1.7565,1.7561,1.7563,0,0,0,0,0,1.7308,1.7327,1.7362,1.7377,1.7388,1.7417,1.7429,1.7445,1.7469,1.7478,1.75,1.7522,1.7542,1.7555,1.7575,1.7593,1.7601,1.7599,1.7598,1.7597,1.7598,1.761,1.761,1.761,1.761,1.761,0,0,1.73,1.7326,1.7336,1.7372,1.7392,1.7411,1.7424,1.7443,1.7458,1.748,1.7503,1.7519,1.7546,1.7566,1.7576,1.7579,1.76,1.7598,1.7597,1.7598,1.761,1.761,1.761,1.761,1.761,1.761,0,0,1.7297,1.7318,1.7333,1.7353,1.7383,1.7402,1.7406,1.7439,1.7452,1.7475,1.7493,1.751,1.7544,1.7562,1.7576,1.7582,1.7594,1.7588,1.7582,1.7594,1.7594,1.7594,1.7596,1.7597,1.7588,1.7588,1.7588,0,1.7284,1.7314,1.7339,1.7358,1.7374,1.7397,1.7413,1.7431,1.7465,1.7475,1.7479,1.7523,1.7542,1.7568,1.757,1.758,1.7585,1.7584,1.7592,1.7592,1.7593,1.7595,1.7596,1.7587,1.7588,1.7588,1.7588,0,1.7297,1.7318,1.7326,1.7361,1.7378,1.7395,1.7422,1.7436,1.745,1.7469,1.7493,1.7517,1.7543,1.755,1.7563,1.7578,1.7579,1.7587,1.7593,1.7591,1.7595,1.7596,1.7586,1.7586,1.7587,1.7587,0,0,1.7276,1.7327,1.7329,1.7346,1.7382,1.7398,1.7416,1.7444,1.7455,1.7478,1.7494,1.7524,1.7532,1.7548,1.7563,1.7573,1.7577,1.758,1.7581,1.7579,1.7596,1.759,1.7591,1.7586,1.7586,1.7586,1.7594,0,1.7278,1.7314,1.7338,1.7364,1.7384,1.7407,1.7423,1.7446,1.7465,1.7484,1.7503,1.7524,1.7533,1.7543,1.7554,1.7574,1.7581,1.7574,1.7601,1.7601,1.7594,1.7592,1.7586,1.7591,1.7595,1.7595,1.7595,0,1.7285,1.731,1.7338,1.7373,1.7382,1.7397,1.7424,1.7442,1.7469,1.7482,1.7501,1.7517,1.7538,1.7542,1.7571,1.7566,1.7578,1.759,1.7591,1.7594,1.7598,1.7595,1.7594,1.7594,1.7597,1.7597,1.7597,0,1.7268,1.7308,1.7331,1.7344,1.7385,1.7395,1.7413,1.744,1.7455,1.7479,1.749,1.7515,1.7529,1.7548,1.7571,1.7572,1.7597,1.7603,1.7608,1.7607,1.7612,1.7611,1.7612,1.7619,1.7619,1.7619,1.7619,0,1.7268,1.7284,1.7324,1.7338,1.7357,1.7385,1.7403,1.7422,1.7447,1.7464,1.7485,1.7501,1.7531,1.755,1.7568,1.759,1.7595,1.7606,1.7611,1.7604,1.7603,1.7613,1.7613,1.762,1.762,1.762,1.762,0,1.7252,1.728,1.7306,1.7344,1.7353,1.7366,1.7398,1.7412,1.7432,1.7455,1.7461,1.7492,1.7517,1.7542,1.7574,1.7586,1.7607,1.7613,1.7598,1.7601,1.7605,1.7604,1.7612,1.7614,1.7619,1.7619,1.7619,0,1.725,1.7264,1.7304,1.7318,1.7336,1.7358,1.7374,1.7402,1.7418,1.7451,1.7461,1.7487,1.751,1.7547,1.7572,1.7598,1.7605,1.7606,1.7608,1.7602,1.7605,1.7604,1.7606,1.7604,1.7604,1.7604,1.7604,0,1.7244,1.7258,1.7281,1.731,1.733,1.7353,1.7377,1.7387,1.742,1.7437,1.7463,1.748,1.7514,1.754,1.7569,1.7586,1.76,1.7603,1.7606,1.7599,1.759,1.7596,1.7596,1.7603,1.7603,1.7603,1.7603,1.7603,1.7236,1.725,1.728,1.7306,1.7328,1.735,1.7366,1.7389,1.7412,1.7443,1.7458,1.7484,1.7512,1.7552,1.7569,1.7589,1.7593,1.7597,1.7598,1.7598,1.7597,1.7587,1.7594,1.7594,1.7595,1.7595,1.7595,0,1.7232,1.7253,1.7277,1.7311,1.7331,1.7345,1.7373,1.7389,1.7412,1.7437,1.746,1.749,1.7516,1.7543,1.7571,1.7582,1.7589,1.7588,1.7587,1.7591,1.7591,1.7587,1.7582,1.7582,1.7582,1.7582,1.7582,1.7582,1.7232,1.7256,1.7273,1.7309,1.733,1.7357,1.7372,1.7393,1.7413,1.7447,1.7469,1.7488,1.7514,1.7544,1.7568,1.7575,1.7584,1.7581,1.7591,1.759,1.7591,1.7592,1.7588,1.7583,1.7583,1.7589,1.7589,1.7589]}]]